Location: Bu�n Treun
(12.1333°N, 108.3167°E)
Time: 23:39:58
(UTC+00:00)

Cosmos 1980 - Pass Details

Date: 13 July 2020
Orbit: 839 x 847 km, 71.0° (Epoch: 03 August)

Event Time Altitude Azimuth Distance (km) Brightness Sun altitude
Rises 12:58:32 0° 201° (SSW) 3,382 6.7 -23.4°
Reaches altitude 10° 13:00:59 10° 203° (SSW) 2,448 6.0 -23.9°
Maximum altitude 13:06:34 70° 286° (WNW) 887 3.9 -25.1°
Drops below altitude 10° 13:12:09 10° 10° (N) 2,447 6.3 -26.2°
Sets 13:14:36 0° 12° (NNE) 3,382 7.1 -26.7°
